Regional Weather Roundup
Issued by NWS Albany, NY

Home | Current Version | Previous Version | Text Only | Print | Product List | Glossary On
Versions: 1 2 3 4 5 6 7 8 9 10 11 12 13 14 15 16 17 18 19 20 21 22 23 24 25 26 27 28 29 30 31 32 33 34 35 36 37 38 39 40 41 42 43 44 45 46 47 48 49 50
000
ASUS41 KALY 261610
RWRALY

NEW YORK STATE HOURLY WEATHER ROUNDUP
NATIONAL WEATHER SERVICE ALBANY NY
1200 PM EDT THU MAR 26 2015

NOTE: "FAIR" INDICATES FEW OR NO CLOUDS BELOW 12,000 FEET WITH NO
SIGNIFICANT WEATHER AND/OR NO OBSTRUCTIONS TO VISIBILITY.

NYZ032-033-038>043-046>054-057>066-NYZ062>081-261700-
EAST


CITY           SKY/WX    TMP DP  RH WIND       PRES   REMARKS
ALBANY         CLOUDY    43  39  86 S10G20    29.84F FOG
GLENS FALLS    NOT AVBL
POUGHKEEPSIE   CLOUDY    45  41  86 SE3       29.83F
NEWBURGH       CLOUDY    45  41  87 VRB6      29.85F FOG
MONTGOMERY     CLOUDY    45  40  82 S5        29.82F
WHITE PLAINS   LGT RAIN  45  43  93 CALM      29.86F VSB 1
ISLIP          DRZL/FOG  45  43  93 S7        29.88F VSB 1/2
NEW YORK CITY  LGT RAIN  48  45  89 S3        29.87F FOG
CENTRAL PARK   LGT RAIN  49  45  86 CALM      29.88F FOG
$$

NYZ005>009-017-018-044>046-055-056-261700-
CENTRAL


CITY           SKY/WX    TMP DP  RH WIND       PRES   REMARKS
FULTON         LGT RAIN  40  32  73 CALM      29.84F
SYRACUSE       RAIN      39  35  86 SE5       29.84F FOG
ROME           RAIN      37  35  92 W7        29.89R FOG     WCI  32
ELMIRA         LGT RAIN  36  36 100 CALM      29.82S FOG
BINGHAMTON     TSTM      36  36 100 N10       29.74F VSB 1/2 WCI  28
MONTICELLO     CLOUDY    43  43 100 SE6       29.80F
$$

NYZ026>034-041>043-261700-
NORTH


CITY           SKY/WX    TMP DP  RH WIND       PRES   REMARKS
WATERTOWN      LGT RAIN  37  33  85 SW5       29.84F FOG     WCI  33
FORT DRUM      NOT AVBL
MASSENA        CLOUDY    41  32  70 SW10      29.82F
SARANAC LAKE     N/A     36  31  82 MISG      29.77F
PLATTSBURGH    CLOUDY    45  34  65 SW8       29.82S
$$

NYZ001>004-010>016-019>021-261700-
WEST


CITY           SKY/WX    TMP DP  RH WIND       PRES   REMARKS
NIAGARA FALLS  SNOW      33  32  96 CALM      29.82F VSB 1/2
BUFFALO        HVY SNOW  33  32  96 CALM      29.82F VSB 1/4
DUNKIRK        LGT SNOW  33  32  96 NW3       29.83F VSB 1
JAMESTOWN      CLOUDY    34  32  93 CALM      29.78F VSB 1
WELLSVILLE     LGT RAIN  38  38 100 E6        29.74F VSB 1/4 WCI  33
ROCHESTER      LGT SNOW  36  33  89 CALM      29.84F FOG
PENN YAN       LGT RAIN  39  37  92 CALM      29.81F FOG
$$

             KEY
       WCI = WIND CHILL INDEX
       VSB = VISIBILITY
       HX  = HEAT INDEX
$$


USA.gov is the U.S. government's official web portal to all federal, state and local government web resources and services.